This demonstration page uses our WeatherBlox Daily Observations layout. Learn more.

Left ArrowRight Arrow

36.19886, -115.1175

Hourly Observations for August 21, 2015

Temp ( °F °C ) Dew Point ( °F °C ) Humidity (%) Winds ( mph kmh ) Pressure ( in mb ) Visibility ( mi km ) Precip ( " mm )
12:53 am 00:53 Clear 91 32.8 50 10 25 25 S 10 17 29.69 1005 10 16 0.00 0.00
1:53 am 01:53 Clear 89 31.7 50 10 26 26 S 6 9 29.70 1006 10 16 0.00 0.00
2:53 am 02:53 Clear 88 31.1 51 10.6 28 28 WNW 3 6 29.70 1006 10 16 0.00 0.00
3:53 am 03:53 Clear 84 28.9 48 8.9 29 29 Calm 29.72 1006 10 16 0.00 0.00
4:53 am 04:53 Clear 82 27.8 51 10.6 34 34 Calm 29.72 1007 10 16 0.00 0.00
5:53 am 05:53 Clear 83 28.3 52 11.1 34 34 E 8 13 29.74 1007 10 16 0.00 0.00
6:53 am 06:53 Sunny 83 28.3 54 12.2 37 37 ESE 9 15 29.77 1008 10 16 0.00 0.00
7:53 am 07:53 Sunny 86 30 57 13.9 37 37 SE 8 13 29.78 1009 10 16 0.00 0.00
8:53 am 08:53 Sunny 89 31.7 58 14.4 35 35 SE 12 19 29.79 1009 10 16 0.00 0.00
9:53 am 09:53 Sunny 92 33.3 56 13.3 30 30 SE 10 17 29.80 1009 10 16 0.00 0.00
10:53 am 10:53 Sunny 94 34.4 56 13.3 28 28 SSE 10 17 29.79 1009 10 16 0.00 0.00
11:53 am 11:53 Sunny 97 36.1 55 12.8 24 24 SSE 12 19 29.77 1008 10 16 0.00 0.00
12:53 pm 12:53 Sunny 99 37.2 54 12.2 22 22 ESE 14 22 29.75 1007 10 16 0.00 0.00
1:53 pm 13:53 Sunny 101 38.3 54 12.2 21 21 SE 22 35 29.72 1007 10 16 0.00 0.00
2:53 pm 14:53 Sunny 102 38.9 53 11.7 19 19 SE 20 31 29.70 1006 10 16 0.00 0.00
3:53 pm 15:53 Sunny 103 39.4 53 11.7 19 19 SSE 24 39 29.67 1005 10 16 0.00 0.00
4:53 pm 16:53 Sunny 104 40 51 10.6 17 17 SSW 13 20 29.65 1004 10 16 0.00 0.00
5:53 pm 17:53 Sunny 103 39.4 45 7.2 14 14 SW 15 24 29.65 1004 10 16 0.00 0.00
6:53 pm 18:53 Sunny 101 38.3 44 6.7 14 14 SSW 10 17 29.65 1004 10 16 0.00 0.00
7:53 pm 19:53 Clear 99 37.2 45 7.2 16 16 SW 10 17 29.66 1005 10 16 0.00 0.00
8:53 pm 20:53 Clear 97 36.1 48 8.9 19 19 SSW 8 13 29.68 1005 10 16 0.00 0.00
9:53 pm 21:53 Clear 95 35 49 9.4 21 21 S 9 15 29.69 1005 10 16 0.00 0.00
10:53 pm 22:53 Clear 93 33.9 51 10.6 24 24 S 9 15 29.70 1006 10 16 0.00 0.00
11:53 pm 23:53 Clear 93 33.9 49 9.4 22 22 SSW 14 22 29.71 1006 10 16 0.00 0.00

Powered by AerisWeather